[[{"header":{"parameterUnit":"m.s-1","parameterCategory":1,"la1":30.2991,"la2":30.254,"lo1":-89.0895,"lo2":-89.0444,"dy":0.0017,"dx":0.0017,"nx":28,"ny":28,"refTime":"2024-06-10T09:00:00:Z","depth":0,"parameterNumber":2,"parameterNumberName":"U-component_of_WINDS"},"data":[0,0,0,0,0,0,0,0,0,0,0,0,0,0,0,0,0,0,0,0,0,0,0,0,0,0,0,0,0,0,0,0,0,0,0,0,0,0,0,0,0,0,0,0,0,0,0,0,0,0,0,0,0,0,0,0,0,0,3.4504,3.4506,0,3.4609,3.461,3.4611,3.4543,3.454,3.4537,3.4534,3.4634,3.464,3.4645,0,0,0,0,0,0,0,0,0,0,0,0,0,3.4244,3.4249,3.4504,3.4506,3.4507,3.4609,3.461,3.4612,3.4544,3.454,3.4536,3.4533,3.4633,3.4639,3.4646,0,0,0,0,0,0,0,0,0,0,0,0,0,3.4354,3.4251,3.4504,3.4486,3.4485,3.4609,3.461,3.4612,3.4545,3.454,3.4535,3.4531,3.463,3.4639,3.4647,3.4792,0,0,3.4672,3.4676,0,0,0,0,0,0,0,0,3.4348,3.4363,3.4487,3.4487,3.4487,3.4559,3.4555,3.4672,3.4546,3.4522,3.4534,3.4529,3.4613,3.4622,3.4652,3.4797,3.4801,3.4673,3.4678,3.4682,3.4684,0,0,0,0,0,0,0,3.434,3.4358,3.4545,3.4489,3.4489,3.4472,3.4482,3.4577,3.4592,3.4524,3.4519,3.4533,3.4611,3.4644,3.4654,3.4803,3.4673,3.468,3.4686,3.4689,3.5078,3.5083,0,0,0,0,0,0,3.4335,3.4353,3.4542,3.4549,3.4405,3.448,3.4492,3.454,3.4591,3.4594,3.4537,3.4529,3.4632,3.4644,3.4657,3.4833,3.4682,3.469,3.4694,3.5073,3.508,3.5085,0,0,0,0,0,0,3.4329,3.4352,3.4538,3.445,3.4472,3.449,3.4544,3.4545,3.4577,3.4601,3.4603,3.4567,3.4629,3.4645,3.4761,3.4835,3.4693,3.4701,3.5067,3.5075,3.5082,3.5184,0,0,0,0,0,0,3.4322,3.4351,3.4406,3.4451,3.4477,3.464,3.4549,3.455,3.4592,3.4584,3.463,3.4633,3.4626,3.4749,3.4769,3.4844,3.4708,3.506,3.507,3.508,3.5174,3.5195,3.5212,0,0,0,0,0,3.4313,3.4427,3.4409,3.4432,3.4546,3.4645,3.4659,3.4651,3.4599,3.4654,3.4671,3.4631,3.4825,3.4761,3.4784,3.4862,3.5055,3.5068,3.5079,3.5166,3.5191,3.5212,0,0,0,0,0,0,3.4384,3.4432,3.4412,3.4545,3.4592,3.4633,3.4702,3.4677,3.4738,3.4726,3.4713,3.4724,3.4846,3.4866,3.4794,3.5009,3.4932,3.4949,3.499,3.5014,3.5033,3.5023,3.4714,0,0,0,0,0,3.4417,3.4494,3.4531,3.4645,3.467,3.4683,3.4725,3.4717,3.4763,3.4782,3.4806,3.4852,3.4924,3.497,3.5037,3.5179,3.5189,3.5245,3.5264,3.528,3.5293,3.5373,3.5399,3.5125,3.5125,3.5124,0,0,3.4481,3.4518,3.4566,3.4661,3.4695,3.4776,3.4699,3.4786,3.4845,3.4794,3.4905,3.4927,3.4977,3.5108,3.5166,3.5128,3.5373,3.5295,3.5307,3.5312,3.5388,3.5414,3.5437,3.5133,3.5131,3.513,0,0,3.464,3.4676,3.4776,3.4816,3.4872,3.4882,3.4907,3.4954,3.4967,3.508,3.5045,3.5116,3.5239,3.5278,3.5313,3.5499,3.5465,3.5521,3.5618,3.5697,3.5718,3.5737,3.5804,3.5828,3.5536,3.5536,3.5536,0,3.4712,3.4833,3.483,3.4922,3.4965,3.4929,3.5031,3.5069,3.5143,3.5174,3.5132,3.5291,3.5321,3.5462,3.5509,3.5539,3.5567,3.5513,3.5716,3.5735,3.5753,3.5816,3.5841,3.5542,3.5542,3.5541,3.554,0,3.492,3.5006,3.508,3.5158,3.5211,3.5307,3.5319,3.5373,3.5363,3.5377,3.5495,3.5534,3.561,3.5644,3.5631,3.5785,3.576,3.5718,3.5639,3.5785,3.5845,3.5869,3.5551,3.5549,3.5547,3.5546,0,0,3.5117,3.5201,3.5228,3.5265,3.533,3.5395,3.5493,3.5571,3.5618,3.5674,3.5755,3.5865,3.5829,3.587,3.5864,3.5933,3.608,3.5883,3.5884,3.5917,3.6253,3.6282,3.631,3.6061,3.6066,3.6069,3.6249,0,3.5279,3.5451,3.5455,3.5611,3.5692,3.5664,3.5749,3.5799,3.5818,3.5888,3.5908,3.5987,3.5933,3.5958,3.6026,3.6048,3.6147,3.6035,3.6135,3.6138,3.612,3.6341,3.6371,3.6538,3.6272,3.6276,3.6279,0,3.5488,3.5557,3.5723,3.5783,3.5817,3.5893,3.5969,3.6037,3.6095,3.6104,3.6156,3.6141,3.6242,3.6166,3.6305,3.6229,3.6272,3.629,3.6296,3.6301,3.6214,3.6351,3.6591,3.6615,3.6315,3.6312,3.631,0,3.5615,3.5749,3.5867,3.59,3.5973,3.6028,3.606,3.6114,3.6163,3.623,3.6263,3.634,3.6381,3.6441,3.6449,3.6393,3.659,3.6513,3.6599,3.6599,3.6637,3.6634,3.6884,3.667,3.667,3.6669,3.6669,0,3.5793,3.5895,3.5926,3.5997,3.6113,3.612,3.6234,3.6262,3.6312,3.6389,3.6371,3.6443,3.6451,3.6527,3.6534,3.665,3.6668,3.6678,3.6678,3.6678,3.6677,3.6702,3.6689,3.6676,3.6674,3.6673,3.6672,0,3.595,3.5975,3.6102,3.6164,3.6183,3.6265,3.6318,3.6388,3.6409,3.6508,3.6532,3.6564,3.6653,3.6669,3.6772,3.6778,3.6916,3.6905,3.6896,3.6894,3.6979,3.697,3.7252,3.729,3.7053,3.7055,3.7057,0,3.606,3.6139,3.6213,3.6266,3.6303,3.6387,3.644,3.6453,3.6508,3.6586,3.6646,3.6735,3.6806,3.695,3.6982,3.7063,3.7052,3.7147,3.7064,3.7063,3.7053,3.7047,3.7055,3.716,3.7163,3.7165,3.7166,0,3.6252,3.6263,3.6341,3.6426,3.6491,3.6557,3.662,3.6664,3.6686,3.675,3.6843,3.6899,3.701,3.7098,3.7181,3.7214,3.7194,3.7194,3.7218,3.7216,3.7208,3.7213,3.6937,3.7185,3.7183,3.7182,3.7181,3.718,3.6387,3.6459,3.6524,3.6613,3.6665,3.6726,3.6797,3.6831,3.691,3.7003,3.7006,3.7109,3.7172,3.7281,3.7321,3.7402,3.7372,3.7406,3.7414,3.7422,3.743,3.72,3.7417,3.7417,3.7416,3.7416,3.7415,0,3.6577,3.6621,3.6704,3.6796,3.6868,3.6851,3.6922,3.6982,3.7074,3.7136,3.7209,3.732,3.7408,3.7452,3.7539,3.7596,3.7589,3.7618,3.7612,3.762,3.7452,3.7422,3.7622,3.7622,3.7622,3.7622,3.7622,3.7622,3.6684,3.6805,3.6825,3.6973,3.7015,3.7119,3.7162,3.722,3.727,3.7395,3.7471,3.7501,3.7556,3.7649,3.773,3.7741,3.7773,3.7806,3.7812,3.7653,3.7631,3.7611,3.7583,3.7814,3.7814,3.7973,3.7975,3.7976]},{"header":{"parameterUnit":"m.s-1","parameterCategory":1,"la1":30.2991,"la2":30.254,"lo1":-89.0895,"lo2":-89.0444,"dy":0.0017,"dx":0.0017,"nx":28,"ny":28,"refTime":"2024-06-10T09:00:00:Z","depth":0,"parameterNumber":3,"parameterNumberName":"V-component_of_WINDS"},"data":[0,0,0,0,0,0,0,0,0,0,0,0,0,0,0,0,0,0,0,0,0,0,0,0,0,0,0,0,0,0,0,0,0,0,0,0,0,0,0,0,0,0,0,0,0,0,0,0,0,0,0,0,0,0,0,0,0,0,1.9158,1.9158,0,1.9192,1.9192,1.9193,1.9147,1.9146,1.9144,1.9142,1.9177,1.918,1.9182,0,0,0,0,0,0,0,0,0,0,0,0,0,1.905,1.9052,1.9158,1.9158,1.9158,1.9192,1.9192,1.9193,1.9148,1.9145,1.9143,1.9142,1.9177,1.9179,1.9182,0,0,0,0,0,0,0,0,0,0,0,0,0,1.9092,1.9053,1.9157,1.914,1.9139,1.9192,1.9192,1.9193,1.9148,1.9145,1.9143,1.9141,1.9176,1.9179,1.9183,1.9255,0,0,1.9194,1.9196,0,0,0,0,0,0,0,0,1.909,1.9096,1.9142,1.9141,1.914,1.9163,1.9167,1.9214,1.9149,1.9144,1.9142,1.9139,1.9174,1.9178,1.919,1.9257,1.9258,1.9194,1.9197,1.9198,1.9199,0,0,0,0,0,0,0,1.9087,1.9094,1.9171,1.9143,1.9141,1.9129,1.9133,1.9176,1.9173,1.9145,1.9141,1.9146,1.9173,1.9187,1.919,1.9259,1.9194,1.9198,1.92,1.9201,1.9383,1.9385,0,0,0,0,0,0,1.9086,1.9092,1.917,1.9172,1.9108,1.9133,1.9137,1.9158,1.9172,1.9172,1.9148,1.9144,1.9181,1.9186,1.9192,1.9274,1.9198,1.9202,1.9204,1.938,1.9383,1.9386,0,0,0,0,0,0,1.9084,1.9094,1.9169,1.9131,1.914,1.9138,1.9162,1.916,1.9173,1.9175,1.9174,1.9162,1.918,1.9186,1.9239,1.9275,1.9203,1.9207,1.9377,1.9381,1.9385,1.9442,0,0,0,0,0,0,1.9081,1.9093,1.9121,1.9132,1.9142,1.9216,1.9164,1.9162,1.9179,1.9174,1.9188,1.9188,1.9178,1.9234,1.9242,1.9279,1.921,1.9374,1.9379,1.9384,1.9437,1.9448,1.9457,0,0,0,0,0,1.9078,1.9137,1.9123,1.9133,1.9177,1.9218,1.9224,1.9212,1.9183,1.921,1.9211,1.9187,1.927,1.9239,1.9249,1.9287,1.9371,1.9378,1.9383,1.9433,1.9446,1.9457,0,0,0,0,0,0,1.9131,1.9138,1.9123,1.9187,1.9203,1.9211,1.9245,1.9226,1.925,1.9244,1.9228,1.9232,1.9287,1.9293,1.9258,1.9356,1.9316,1.9324,1.935,1.9363,1.9372,1.9369,1.9213,0,0,0,0,0,1.915,1.9183,1.9188,1.9244,1.9253,1.9248,1.9265,1.9254,1.9269,1.9276,1.928,1.9296,1.9324,1.9344,1.9371,1.9438,1.9439,1.9469,1.9479,1.9487,1.9494,1.9526,1.9539,1.9405,1.9405,1.9405,0,0,1.919,1.9198,1.922,1.9255,1.9265,1.9299,1.9253,1.9292,1.9316,1.9281,1.933,1.9335,1.935,1.941,1.9436,1.9416,1.9531,1.9494,1.9501,1.9503,1.9534,1.9546,1.9558,1.9409,1.9409,1.9408,0,0,1.9279,1.929,1.9337,1.9348,1.9364,1.936,1.9371,1.9382,1.9383,1.9432,1.9406,1.9434,1.9486,1.9497,1.9509,1.9601,1.9579,1.961,1.9661,1.9693,1.9704,1.9713,1.9743,1.9755,1.9617,1.9618,1.9618,0,1.9327,1.9377,1.9363,1.9403,1.9417,1.9387,1.9433,1.9445,1.9469,1.948,1.9457,1.9519,1.9527,1.9587,1.9609,1.9622,1.9632,1.9608,1.9704,1.9713,1.9721,1.9749,1.9761,1.9621,1.9621,1.962,1.962,0,1.9434,1.9469,1.9504,1.9527,1.9547,1.9589,1.9581,1.9602,1.9589,1.9587,1.9636,1.9645,1.9672,1.9686,1.9675,1.9744,1.973,1.9706,1.9665,1.9737,1.9764,1.9775,1.9626,1.9625,1.9624,1.9623,0,0,1.9558,1.9571,1.9584,1.9593,1.9608,1.9634,1.9675,1.97,1.9718,1.9735,1.9767,1.981,1.9787,1.9801,1.9791,1.9819,1.9888,1.9791,1.9791,1.9806,1.9962,1.9978,1.9991,1.9874,1.9876,1.9878,1.9959,0,1.9646,1.9715,1.9703,1.977,1.98,1.9771,1.9806,1.9818,1.9817,1.9842,1.9841,1.9871,1.9839,1.9847,1.9874,1.9874,1.9918,1.9868,1.9902,1.9903,1.9897,2.0005,2.0024,2.01,1.997,1.9972,1.9973,0,1.9758,1.9777,1.9847,1.9854,1.9867,1.9898,1.9919,1.9945,1.9957,1.9954,1.9969,1.9952,1.9991,1.995,2.0002,1.9968,1.9981,1.9983,1.9986,1.9987,1.9941,2.0007,2.0125,2.0136,1.999,1.9988,1.9987,0,1.9838,1.9883,1.9929,1.9938,1.9948,1.997,1.9976,1.9986,2.0001,2.002,2.0029,2.0053,2.0065,2.0083,2.0072,2.0044,2.0125,2.0085,2.0122,2.0123,2.014,2.0138,2.0259,2.0152,2.0152,2.0152,2.0151,0,1.9936,1.9979,1.9965,1.9994,2.0041,2.0026,2.0072,2.0074,2.0083,2.011,2.0087,2.0113,2.0099,2.0123,2.0116,2.0158,2.0165,2.0162,2.0159,2.0163,2.0163,2.017,2.0164,2.0155,2.0154,2.0153,2.0153,0,2.0034,2.0026,2.0075,2.0079,2.0082,2.0116,2.0119,2.0145,2.0142,2.0177,2.0184,2.0179,2.0206,2.0198,2.0228,2.0223,2.0276,2.0268,2.0272,2.0269,2.0306,2.0302,2.0434,2.0449,2.0335,2.0336,2.0337,0,2.0096,2.0128,2.0135,2.0152,2.0158,2.0186,2.02,2.0186,2.0203,2.0218,2.0242,2.0267,2.0286,2.0332,2.033,2.0353,2.0343,2.0388,2.0346,2.0348,2.0341,2.0338,2.034,2.0396,2.0397,2.0398,2.0399,0,2.0206,2.02,2.0222,2.0243,2.0261,2.0277,2.0291,2.0306,2.0292,2.0312,2.0339,2.0354,2.0384,2.0409,2.0429,2.0433,2.0413,2.0412,2.0421,2.0425,2.0425,2.0423,2.0292,2.0409,2.0408,2.0407,2.0407,2.0406,2.0286,2.0312,2.0321,2.0346,2.0354,2.0367,2.039,2.0389,2.0412,2.0434,2.0424,2.0455,2.0465,2.0489,2.0496,2.052,2.0502,2.0517,2.052,2.0523,2.0527,2.0423,2.0524,2.0523,2.0523,2.0523,2.0523,0,2.0393,2.0396,2.0419,2.0438,2.0457,2.0437,2.045,2.0467,2.0495,2.0505,2.0524,2.0554,2.0577,2.0577,2.0599,2.0617,2.0608,2.0623,2.0621,2.0621,2.0542,2.0531,2.063,2.063,2.063,2.063,2.063,2.0629,2.0451,2.0493,2.0487,2.0532,2.0535,2.0565,2.0574,2.0585,2.0592,2.0627,2.0646,2.0645,2.065,2.0672,2.0692,2.0691,2.0699,2.0716,2.0712,2.0638,2.0627,2.0617,2.0606,2.0719,2.0719,2.0789,2.0789,2.079]}]]